DW9636 Weather Reports


Display with metric or nautical units.
time (UTC)temp
F
wind
direction
speed
MPH
gust
MPH
rain 1hr
in
rain 24hr
in
rain mn
in
humidity
%
barometer
mb
20200217141609 29 184 0.0 0.0 0.00 0.00 0.00 78 1025.8
20200217140219 29 184 0.0 0.0 0.00 0.00 0.00 78 1025.7
20200217134617 29 184 0.0 0.0 0.00 0.00 0.00 78 1025.6
20200217133101 29 184 0.0 0.0 0.00 0.00 0.00 78 1025.5
20200217131550 29 185 0.0 0.0 0.00 0.00 0.00 78 1025.5
20200217130051 29 185 0.0 0.0 0.00 0.00 0.00 79 1025.4
20200217124550 29 185 0.0 0.0 0.00 0.00 0.00 79 1025.4
20200217123107 29 218 0.0 0.0 0.00 0.00 0.00 78 1025.4
20200217121543 29 269 0.0 0.0 0.00 0.00 0.00 78 1025.4
20200217120059 28 269 0.0 0.0 0.00 0.00 0.00 78 1025.2
20200217114604 28 306 0.0 0.0 0.00 0.00 0.00 77 1025.3
20200217113037 28 306 0.0 0.0 0.00 0.00 0.00 76 1025.3
20200217111530 28 275 0.0 0.0 0.00 0.00 0.00 76 1025.3
20200217110137 29 275 0.0 0.0 0.00 0.00 0.00 76 1025.2
20200217104527 29 304 0.0 0.0 0.00 0.00 0.00 76 1025.3
20200217103055 29 304 0.0 0.0 0.00 0.00 0.00 77 1025.4
20200217101537 29 304 0.0 0.0 0.00 0.00 0.00 76 1025.5
20200217100117 29 304 0.0 0.0 0.00 0.00 0.00 77 1025.5
20200217094549 28 325 0.0 0.0 0.00 0.00 0.00 78 1025.5
20200217093037 28 327 0.0 0.0 0.00 0.00 0.00 79 1025.4
20200217091538 28 296 0.0 0.0 0.00 0.00 0.00 79 1025.2
20200217090023 28 296 0.0 0.0 0.00 0.00 0.00 79 1025.2
20200217084535 29 296 0.0 0.0 0.00 0.00 0.00 79 1025.2
20200217083100 29 296 0.0 0.0 0.00 0.00 0.00 79 1025.2
20200217081544 29 296 0.0 0.0 0.00 0.00 0.00 79 1025.3
20200217080041 29 296 0.0 0.0 0.00 0.00 0.00 79 1025.2
20200217074535 29 302 0.0 0.0 0.00 0.00 0.06 78 1025.0
20200217073019 29 319 0.0 0.0 0.00 0.00 0.06 78 1025.0
20200217071613 29 347 0.0 0.0 0.00 0.00 0.06 78 1025.0
20200217070029 30 348 0.0 0.0 0.00 0.00 0.06 78 1025.1
20200217064517 30 342 0.0 0.0 0.00 0.00 0.06 77 1025.1
20200217063018 30 99 0.0 0.0 0.00 0.00 0.06 77 1024.9
20200217061545 30 99 0.0 0.0 0.00 0.00 0.06 79 1024.8
20200217060011 29 103 0.0 0.0 0.00 0.00 0.06 80 1024.8
20200217054514 28 106 0.0 0.0 0.00 0.00 0.06 80 1024.8
20200217053007 29 83 0.0 0.0 0.00 0.00 0.06 79 1024.9
20200217051527 29 36 0.0 0.0 0.00 0.00 0.06 80 1024.9
20200217050009 29 36 0.0 0.0 0.00 0.00 0.06 79 1024.7
20200217044507 29 36 0.0 0.0 0.00 0.00 0.06 79 1024.6
20200217043014 29 54 0.0 0.0 0.00 0.00 0.06 78 1024.6
20200217041505 29 54 0.0 0.0 0.00 0.00 0.06 77 1024.5
20200217040018 29 54 0.0 0.0 0.00 0.00 0.06 76 1024.3
20200217034504 28 54 0.0 0.0 0.00 0.00 0.06 73 1024.2
20200217033013 29 54 0.0 0.0 0.00 0.00 0.06 72 1024.2
20200217031645 30 54 0.0 0.0 0.00 0.00 0.06 68 1024.4
20200217030129 31 5 0.0 0.0 0.00 0.00 0.06 63 1024.2
20200217024736 32 5 0.0 0.0 0.00 0.00 0.06 62 1023.9
20200217023231 33 302 0.0 0.0 0.00 0.00 0.06 60 1024.1
20200217021707 33 284 0.0 0.0 0.00 0.00 0.06 62 1023.9
20200217020116 33 217 0.0 0.0 0.00 0.00 0.06 64 1023.6
20200217014635 33 217 0.0 0.0 0.00 0.00 0.06 62 1023.1
20200217013121 34 217 0.0 0.0 0.00 0.00 0.06 60 1023.1
20200217011615 35 162 0.0 0.0 0.00 0.00 0.06 59 1023.1
20200217010138 36 117 0.0 0.0 0.00 0.00 0.06 56 1023.0
20200217004706 37 148 0.0 0.0 0.00 0.00 0.06 54 1023.0
20200217003106 37 171 0.0 0.0 0.00 0.00 0.06 52 1023.1
20200217001616 38 42 1.0 0.0 0.00 0.00 0.06 50 1023.1
20200217000119 38 246 1.0 0.0 0.00 0.00 0.06 49 1023.1
20200216234546 39 284 0.0 0.0 0.00 0.00 0.06 50 1023.0
20200216233110 39 289 1.0 0.0 0.00 0.00 0.06 51 1022.8
20200216231723 40 296 1.0 0.0 0.00 0.00 0.06 47 1022.6
20200216230222 40 355 1.0 0.0 0.00 0.00 0.06 49 1022.4
20200216224558 40 37 1.0 0.0 0.00 0.00 0.06 45 1022.0
20200216223124 41 306 1.0 0.0 0.00 0.00 0.06 47 1021.9
20200216221611 42 22 1.0 0.0 0.00 0.00 0.06 45 1021.6
20200216220122 42 265 1.0 0.0 0.00 0.00 0.06 41 1021.5
20200216214628 42 285 1.0 0.0 0.00 0.00 0.06 42 1021.5
20200216213115 42 268 1.0 0.0 0.00 0.00 0.06 42 1021.8
20200216211544 43 312 2.0 0.0 0.00 0.00 0.06 39 1021.9
20200216210112 43 319 1.0 0.0 0.00 0.00 0.06 41 1022.0
20200216204612 43 319 1.0 0.0 0.00 0.00 0.06 43 1022.0
20200216203054 42 300 0.0 0.0 0.00 0.00 0.06 50 1022.0
20200216201609 41 328 0.0 0.0 0.00 0.00 0.06 47 1022.2
20200216200105 41 312 0.0 0.0 0.00 0.00 0.06 49 1022.4
20200216194548 41 331 1.0 0.0 0.00 0.00 0.06 50 1022.4
20200216193029 40 288 0.0 0.0 0.00 0.00 0.06 60 1022.2
20200216191518 39 277 0.0 0.0 0.00 0.00 0.05 63 1022.2
20200216190025 38 277 0.0 0.0 0.00 0.00 0.05 68 1022.4
20200216184515 37 329 0.0 0.0 0.00 0.00 0.05 72 1022.1
20200216183018 36 355 0.0 0.0 0.00 0.00 0.05 76 1022.0
20200216181509 35 166 0.0 0.0 0.00 0.00 0.05 82 1021.8
20200216180005 35 360 0.0 0.0 0.00 0.00 0.04 86 1021.7
20200216174504 34 315 0.0 0.0 0.00 0.00 0.04 87 1021.8
20200216173009 34 288 0.0 0.0 0.00 0.00 0.04 92 1021.7
20200216171759 34 339 0.0 0.0 0.00 0.00 0.03 93 1021.6
20200216170001 33 344 0.0 0.0 0.00 0.00 0.03 93 1021.5
20200216164738 33 229 0.0 0.0 0.00 0.00 0.02 93 1021.4
20200216163151 33 229 0.0 0.0 0.00 0.00 0.02 93 1021.2
20200216161647 33 292 0.0 0.0 0.00 0.00 0.02 94 1021.0
20200216154637 33 292 0.0 0.0 0.00 0.00 0.02 94 1020.1
20200216153117 33 206 0.0 0.0 0.00 0.00 0.02 94 1019.9
20200216151713 33 206 0.0 0.0 0.00 0.00 0.02 94 1019.8
20200216144656 33 206 0.0 0.0 0.00 0.00 0.02 94 1019.6
20200216143109 33 206 0.0 0.0 0.00 0.00 0.02 94 1019.3